Wind_Speed
17 17 18 18 17 17 17 16 17 17 17 16 17 17 16 18 18 20 22 12 11 14 14 9 12 14 16 20 21 23 15 16 22 23 6 4 8 10 20 32 14 5 21 31 31
16 17 17 18 17 16 17 16 16 15 16 16 16 16 17 18 22 24 17 20 19 17 14 11 13 14 18 20 23 20 15 22 23 24 8 6 7 12 9 15 16 22 30 35 30
15 16 17 17 17 16 15 15 14 14 15 15 14 15 15 17 19 5 6 12 19 15 14 15 15 15 18 18 23 24 19 19 27 32 21 7 9 12 14 11 19 26 32 31 30
15 15 16 16 15 14 14 13 13 13 13 14 14 13 13 13 5 1 6 1 2 6 12 13 15 18 17 16 21 21 27 24 32 38 34 16 6 15 44 13 31 24 26 31 29
15 15 15 15 14 13 12 12 12 12 12 13 13 12 10 8 16 5 5 7 8 8 13 15 17 19 17 17 17 19 20 24 26 32 34 16 17 20 37 17 36 21 27 27 28
14 14 15 15 14 13 12 12 12 11 12 11 10 10 9 14 5 5 1 6 3 8 11 16 16 17 19 19 16 18 19 25 25 30 25 20 19 23 6 7 27 32 27 25 26
14 13 14 15 13 12 11 11 12 11 10 9 10 10 11 20 5 6 5 5 6 9 14 14 15 17 14 16 18 21 17 19 20 26 20 20 23 18 30 31 29 26 26 25 25
13 13 13 14 12 11 10 11 11 10 10 11 10 9 10 4 7 9 8 7 6 7 11 11 12 15 19 21 21 11 16 16 18 19 22 17 22 18 21 25 26 24 28 28 26
12 13 13 13 11 10 10 11 12 11 10 8 4 5 9 6 4 6 9 9 6 7 8 9 8 14 18 16 15 16 13 19 20 21 20 19 20 16 22 25 25 25 25 27 27
11 12 12 11 9 8 10 13 11 9 6 5 7 9 10 10 1 3 7 9 6 7 9 9 9 9 9 10 13 18 16 12 15 20 21 18 20 18 30 24 26 28 25 25 28
10 11 10 9 7 5 9 9 7 1 8 13 6 10 12 8 5 6 6 8 10 9 11 17 11 12 16 18 17 17 20 18 20 14 20 20 20 19 20 24 26 32 31 32 29
8 8 8 7 5 3 6 7 8 10 11 18 6 8 6 6 6 6 4 9 11 11 15 12 14 15 16 17 18 20 18 16 13 19 17 13 20 18 21 23 28 31 36 34 31
6 6 6 5 4 5 5 8 10 12 7 14 2 5 3 7 6 9 5 10 13 15 14 14 17 17 10 14 12 14 15 16 18 18 19 17 20 16 17 29 31 18 7 10 28
5 5 4 1 2 7 9 7 11 7 5 9 1 5 6 6 5 3 4 9 16 17 15 12 18 15 16 13 14 16 18 19 19 17 14 18 15 17 18 19 22 30 41 56 57
4 3 2 6 6 7 7 10 9 5 1 6 8 1 6 4 10 4 6 9 14 16 16 18 18 19 10 15 15 17 18 18 18 18 20 20 14 18 16 22 24 29 39 44 42
5 4 1 3 7 5 11 11 7 4 1 7 8 10 8 7 10 9 23 8 10 17 15 18 23 18 20 18 15 18 17 17 15 17 16 20 19 17 18 19 19 21 38 39 40
7 6 5 7 7 11 11 8 4 4 7 10 13 12 12 6 12 13 11 15 9 10 14 21 17 8 20 24 23 21 15 12 15 15 15 20 20 17 21 21 20 21 20 39 40
7 5 7 12 7 12 8 9 8 12 12 14 12 15 14 3 4 11 15 12 11 12 12 13 16 19 12 13 12 21 17 10 8 14 18 24 15 13 14 6 24 24 2 20 36
11 9 5 9 8 8 10 4 7 9 11 12 15 10 11 16 14 13 13 10 13 16 12 12 16 28 25 23 19 19 14 21 18 19 16 15 22 21 31 35 22 23 26 10 23
14 12 8 7 8 10 10 5 4 8 11 10 9 9 12 13 11 11 11 15 12 15 17 15 21 18 21 24 19 17 18 17 6 8 11 12 11 10 26 28 31 33 20 32 37
17 8 4 7 10 18 4 7 6 9 8 8 9 8 10 10 12 12 6 12 11 11 17 16 12 17 20 17 22 18 16 18 2 3 3 8 3 12 17 21 22 34 44 20 21
12 7 9 9 13 3 8 5 3 5 9 5 5 8 7 11 8 11 9 11 15 15 15 12 8 12 21 21 20 16 14 11 7 12 9 10 9 9 13 23 26 33 42 37 26
10 4 7 11 5 6 3 7 4 6 6 5 4 5 6 8 6 10 9 9 11 14 9 10 7 11 16 16 21 19 17 17 14 9 16 12 8 6 14 14 22 28 41 37 8
11 5 4 6 8 8 2 1 2 3 0 5 4 4 6 9 10 6 12 8 15 8 3 1 7 14 13 19 19 20 22 22 14 9 16 17 14 18 14 13 13 17 26 24 5
5 5 4 5 8 4 5 2 4 1 2 1 4 2 7 6 12 10 13 13 14 6 8 2 11 15 17 20 18 15 12 15 18 4 7 13 15 15 15 14 17 16 17 17 22
8 7 2 2 4 8 3 1 5 2 2 1 3 7 9 8 6 11 13 11 6 12 9 9 8 14 18 20 7 10 8 8 11 14 15 14 12 13 12 14 20 18 11 10 19
12 6 7 3 5 6 3 3 4 4 5 5 6 8 9 10 11 13 13 11 10 7 6 5 6 9 13 17 19 5 10 12 10 10 11 8 7 14 11 15 20 24 16 20 14
Wind_Direction
321 321 321 319 316 312 310 309 304 302 300 305 304 307 308 304 297 288 276 251 243 263 259 248 240 227 234 243 243 245 252 257 263 269 247 140 239 166 112 142 171 153 146 149 153
319 320 320 317 315 314 311 307 301 300 301 303 309 310 310 308 300 283 282 253 257 253 254 239 227 223 231 237 244 236 247 249 260 268 347 323 257 156 160 146 138 92 122 141 151
316 317 319 319 317 311 306 304 301 300 303 307 310 309 311 314 316 226 296 245 249 247 232 239 250 232 232 234 239 239 242 256 262 268 300 169 231 19 201 174 154 129 137 146 154
315 317 318 314 312 309 306 303 303 303 306 308 307 308 312 312 307 200 319 260 257 231 227 238 243 254 239 240 234 252 242 242 264 279 291 261 157 87 298 84 98 141 154 153 160
309 311 314 314 313 307 306 306 306 307 309 309 308 312 317 275 269 276 300 266 273 244 222 231 238 238 252 245 250 241 259 250 254 268 274 289 282 181 208 129 154 168 167 159 163
305 309 315 314 313 311 310 311 308 309 308 308 311 311 307 269 283 294 234 257 228 222 228 236 237 240 257 259 254 252 255 272 257 262 268 270 267 263 149 72 139 163 161 168 168
299 306 310 314 312 311 311 309 306 307 307 311 312 308 280 249 289 275 230 240 247 230 242 245 247 259 268 267 268 257 266 260 264 258 259 260 261 253 153 170 143 159 167 171 170
297 303 306 310 310 307 309 307 304 307 303 301 301 300 263 312 246 246 241 248 232 227 259 286 266 268 272 271 284 245 241 255 263 243 244 245 258 236 169 149 159 169 179 173 170
295 298 300 309 310 310 313 309 307 306 299 288 294 287 281 255 252 238 230 235 228 248 253 261 278 269 265 251 257 245 242 239 244 259 223 230 251 265 229 172 164 176 187 176 164
293 293 296 307 305 316 322 312 311 297 309 272 241 263 265 254 106 283 230 235 227 244 244 240 230 237 232 266 257 258 229 254 236 231 217 222 223 238 255 183 176 178 187 188 179
294 292 293 302 304 326 339 335 334 304 237 246 271 246 294 260 273 250 214 226 235 239 254 214 227 240 237 216 240 263 279 294 305 298 181 211 231 222 172 189 196 182 189 192 190
292 291 298 298 290 281 324 331 5 327 303 233 265 254 314 246 261 198 210 231 225 251 246 245 227 244 252 257 251 254 269 276 294 298 302 262 225 227 179 196 208 198 184 191 187
305 300 296 299 299 281 318 320 329 326 272 241 170 64 89 178 280 149 189 229 267 261 264 271 279 292 273 281 281 274 276 283 276 277 279 275 273 273 197 198 210 200 246 254 194
318 305 298 254 298 297 265 318 331 321 270 150 212 75 182 246 213 326 297 262 273 283 284 305 301 274 288 264 265 266 271 255 259 259 264 267 264 233 241 226 199 199 203 189 206
348 327 266 214 308 304 316 320 323 297 150 288 71 259 219 319 336 129 282 271 272 284 293 298 303 300 245 270 280 271 265 272 277 277 277 248 267 276 261 230 219 211 204 198 184
21 19 24 325 280 323 320 312 314 243 304 353 38 344 336 24 350 335 329 245 330 345 293 276 282 299 301 308 279 297 297 285 270 271 256 261 254 255 259 263 254 228 201 202 189
42 31 7 309 279 318 318 312 229 277 313 31 355 336 320 32 330 334 349 319 12 342 326 320 290 328 352 336 343 335 319 279 268 241 245 239 243 254 260 261 261 271 245 202 194
24 6 351 357 322 310 314 271 281 12 27 347 335 297 292 35 344 350 317 324 48 2 340 339 319 356 358 346 310 329 324 300 288 308 305 311 295 297 297 2 15 352 229 187 195
326 308 323 346 321 304 300 286 27 9 351 344 315 1 342 351 2 336 329 328 45 30 8 322 317 324 321 333 321 302 280 288 299 299 295 285 293 289 10 2 9 4 348 353 158
309 293 264 323 301 294 276 77 79 19 342 345 343 356 331 352 348 326 324 47 17 17 360 325 308 314 314 323 302 285 306 302 5 298 295 272 261 28 4 1 354 350 358 54 106
306 257 16 337 300 272 339 60 79 57 4 355 352 340 350 355 332 329 341 83 35 357 347 325 324 319 314 313 322 320 311 311 273 242 296 307 52 13 10 10 355 336 337 87 108
300 283 359 339 283 10 39 16 346 20 9 4 358 331 6 332 331 308 347 360 18 345 334 11 308 305 315 300 282 283 326 350 335 289 270 265 275 52 27 2 0 342 334 330 131
281 323 0 342 298 104 123 99 50 11 27 355 9 356 344 311 311 343 333 332 354 341 30 351 332 312 326 322 337 343 327 308 321 269 262 282 285 97 39 23 353 334 324 325 215
292 297 118 50 34 339 110 130 160 104 293 335 325 319 331 328 301 307 297 358 347 53 350 109 275 310 312 314 316 323 358 352 330 314 308 292 340 354 1 339 342 341 338 345 164
282 50 356 343 47 10 328 338 290 74 184 201 221 347 333 316 312 307 350 337 321 138 319 360 314 317 321 307 325 19 5 2 331 8 310 332 332 7 12 352 347 339 3 53 91
338 348 355 107 336 291 151 72 324 15 280 14 292 329 305 284 353 319 321 320 310 349 323 15 316 331 311 305 263 87 39 348 345 11 354 345 18 10 8 15 12 1 52 123 114
347 319 291 177 196 250 59 25 345 319 187 279 323 307 304 9 329 302 291 277 270 280 333 310 319 315 304 332 312 50 348 1 348 358 338 1 12 357 18 15 15 13 104 133 118
Height
1529 1527 1525 1523 1521 1519 1518 1516 1515 1513 1511 1509 1508 1506 1504 1501 1498 1495 1491 1494 1494 1492 1494 1495 1496 1496 1498 1497 1495 1493 1491 1487 1475 1463 1454 1455 1455 1454 1464 1477 1483 1483 1484 1489 1503
1528 1526 1524 1522 1520 1518 1516 1514 1513 1511 1510 1508 1505 1504 1502 1497 1494 1489 1488 1490 1491 1492 1493 1494 1494 1494 1494 1494 1492 1489 1486 1478 1466 1453 1452 1460 1453 1453 1459 1466 1475 1482 1484 1493 1503
1527 1524 1523 1520 1518 1517 1515 1513 1511 1510 1508 1506 1504 1502 1500 1496 1491 1484 1485 1486 1488 1489 1490 1493 1492 1490 1489 1488 1487 1483 1480 1474 1465 1457 1454 1455 1458 1477 1464 1465 1468 1482 1487 1494 1504
1525 1523 1521 1520 1517 1515 1513 1511 1509 1507 1506 1504 1502 1501 1499 1497 1490 1484 1485 1485 1486 1487 1489 1491 1491 1488 1484 1482 1482 1480 1473 1474 1470 1460 1457 1451 1459 1464 1478 1468 1469 1485 1495 1492 1500
1524 1522 1520 1518 1516 1513 1511 1509 1507 1506 1504 1502 1501 1499 1498 1497 1489 1484 1485 1485 1485 1486 1488 1490 1488 1486 1482 1478 1476 1474 1471 1469 1468 1462 1458 1453 1454 1466 1476 1469 1470 1493 1497 1492 1499
1522 1521 1518 1517 1514 1511 1509 1507 1506 1504 1502 1501 1499 1498 1497 1495 1488 1486 1485 1484 1485 1485 1488 1487 1484 1483 1479 1475 1473 1470 1471 1468 1464 1461 1457 1454 1453 1457 1469 1467 1465 1483 1483 1495 1498
1521 1518 1517 1515 1512 1509 1508 1506 1504 1502 1501 1500 1499 1497 1495 1487 1486 1486 1486 1485 1485 1486 1485 1484 1483 1481 1477 1475 1472 1468 1471 1465 1463 1461 1456 1455 1452 1455 1465 1477 1467 1476 1486 1493 1497
1519 1517 1515 1513 1510 1508 1506 1504 1502 1501 1500 1499 1498 1497 1491 1485 1485 1485 1485 1485 1485 1485 1485 1483 1483 1481 1479 1474 1468 1466 1468 1476 1463 1458 1456 1458 1462 1451 1460 1465 1474 1482 1488 1492 1494
1516 1515 1513 1511 1509 1507 1504 1503 1501 1499 1498 1497 1497 1496 1487 1483 1482 1482 1483 1483 1483 1484 1484 1485 1485 1482 1479 1475 1473 1460 1474 1468 1461 1452 1452 1457 1459 1453 1454 1459 1467 1476 1484 1485 1489
1514 1513 1512 1509 1508 1506 1504 1501 1499 1498 1497 1496 1496 1501 1485 1481 1480 1482 1482 1482 1482 1482 1483 1483 1482 1480 1479 1480 1487 1466 1459 1451 1449 1441 1439 1451 1453 1452 1448 1454 1460 1468 1477 1481 1485
1512 1511 1510 1508 1507 1505 1504 1500 1501 1499 1495 1490 1484 1484 1480 1480 1481 1480 1480 1482 1481 1480 1478 1474 1477 1477 1468 1466 1467 1464 1462 1460 1443 1431 1437 1445 1447 1444 1448 1455 1460 1466 1475 1479 1483
1510 1509 1508 1507 1507 1506 1504 1502 1502 1501 1492 1485 1483 1480 1480 1480 1478 1477 1480 1481 1478 1476 1469 1468 1471 1460 1456 1454 1455 1453 1456 1458 1448 1440 1439 1435 1438 1436 1439 1448 1455 1459 1466 1476 1483
1509 1508 1508 1507 1506 1506 1505 1504 1502 1500 1494 1481 1479 1479 1479 1480 1473 1472 1477 1477 1475 1470 1465 1465 1456 1449 1451 1453 1454 1455 1459 1456 1455 1443 1436 1439 1441 1435 1434 1440 1447 1452 1467 1470 1475
1509 1508 1507 1507 1508 1505 1504 1504 1502 1501 1496 1477 1475 1477 1477 1474 1472 1474 1473 1475 1469 1467 1460 1459 1451 1450 1450 1451 1454 1462 1448 1447 1449 1453 1463 1437 1456 1436 1433 1434 1438 1447 1455 1456 1467
1509 1508 1508 1507 1506 1505 1506 1504 1502 1502 1519 1478 1475 1477 1474 1472 1473 1474 1472 1471 1468 1466 1463 1460 1453 1449 1452 1452 1447 1452 1443 1444 1444 1447 1446 1445 1454 1436 1422 1423 1421 1427 1433 1444 1451
1510 1509 1508 1508 1506 1505 1505 1504 1503 1504 1523 1483 1476 1476 1472 1471 1472 1474 1469 1468 1469 1468 1460 1457 1453 1450 1449 1443 1442 1441 1443 1442 1442 1446 1455 1445 1443 1436 1426 1416 1411 1410 1415 1424 1433
1512 1511 1509 1508 1506 1505 1504 1503 1502 1503 1477 1485 1485 1479 1476 1475 1479 1472 1473 1471 1474 1483 1477 1464 1456 1453 1462 1459 1451 1450 1452 1463 1462 1454 1451 1427 1433 1425 1414 1407 1405 1405 1404 1410 1420
1513 1511 1510 1506 1504 1505 1503 1501 1503 1488 1493 1489 1486 1479 1479 1476 1479 1481 1479 1477 1481 1484 1487 1486 1483 1464 1470 1470 1481 1476 1473 1480 1495 1481 1469 1436 1444 1432 1410 1404 1412 1406 1403 1403 1414
1514 1512 1508 1507 1505 1504 1502 1497 1506 1503 1501 1498 1489 1487 1484 1480 1484 1484 1483 1481 1483 1491 1504 1498 1490 1478 1472 1470 1471 1470 1477 1458 1460 1458 1467 1450 1435 1427 1430 1433 1423 1422 1420 1416 1417
1514 1511 1509 1506 1504 1503 1497 1502 1502 1507 1506 1502 1500 1496 1501 1494 1496 1493 1486 1490 1496 1499 1502 1500 1499 1487 1476 1472 1468 1464 1456 1462 1471 1494 1488 1453 1450 1484 1478 1469 1461 1454 1443 1436 1434
1512 1509 1506 1505 1502 1498 1496 1499 1502 1508 1510 1508 1507 1506 1504 1504 1501 1497 1491 1497 1501 1503 1504 1499 1499 1495 1485 1479 1474 1470 1467 1463 1471 1485 1503 1497 1482 1499 1501 1491 1488 1479 1466 1453 1460
1514 1506 1505 1504 1499 1494 1502 1505 1511 1510 1512 1510 1509 1509 1510 1509 1506 1501 1501 1500 1504 1507 1507 1505 1507 1504 1493 1477 1470 1467 1467 1468 1487 1492 1490 1499 1493 1501 1498 1497 1491 1487 1480 1469 1457
1512 1504 1506 1504 1499 1498 1507 1509 1513 1513 1515 1513 1512 1513 1512 1512 1513 1504 1504 1504 1506 1507 1511 1513 1510 1511 1495 1481 1469 1477 1476 1474 1473 1473 1481 1486 1481 1484 1486 1491 1493 1494 1486 1479 1469
1513 1502 1505 1506 1508 1507 1507 1509 1509 1516 1515 1516 1515 1513 1513 1512 1507 1507 1505 1503 1508 1509 1513 1514 1511 1509 1512 1499 1489 1486 1489 1484 1484 1490 1486 1472 1474 1477 1481 1488 1485 1490 1486 1481 1476
1513 1512 1514 1509 1508 1512 1511 1511 1508 1511 1514 1516 1511 1511 1514 1517 1512 1508 1507 1508 1508 1509 1508 1508 1512 1505 1500 1495 1489 1497 1506 1503 1502 1504 1498 1489 1497 1493 1488 1489 1482 1486 1488 1487 1484
1519 1516 1514 1515 1517 1513 1515 1511 1512 1512 1515 1511 1516 1514 1513 1513 1513 1517 1514 1513 1512 1509 1508 1510 1515 1508 1505 1488 1489 1514 1509 1510 1508 1498 1500 1490 1498 1498 1494 1494 1494 1492 1482 1490 1493
1523 1521 1519 1515 1511 1512 1510 1512 1513 1516 1514 1516 1516 1516 1513 1513 1516 1516 1515 1513 1513 1512 1510 1511 1511 1511 1508 1494 1487 1507 1512 1508 1506 1504 1506 1503 1509 1502 1500 1502 1501 1497 1489 1495 1499